Погода в Романовке

Россия / Саратовская область     51°45′00″N   42°45′31″E
темп.,
°C
ветер,
м/с
пор.,
м/с
влажн.,
%
обл.,
%
осадки,
мм/ч
давл.,
гПа
погр.,
м
25 мая, ср
ср2501:00+6ссв22925 0.1 101023
04:00+4с369477 0.1 1012116
07:00+5с4682100 0.0 1013324
10:00+9ссз346082 0.0 10141346
13:00+9сз3457100 0.0 10151310
16:00+10сз345878 0.0 10161285
19:00+9сз366752 0.0 1017424
22:00+6зсз227197 0.1 101712
26 мая, чт
чт2601:00+5з2265100 0.0 101810
04:00+6ююз356912 0.0 1018121
07:00+7юз35798 0.0 1017175
10:00+13юз33625 0.0 1016819
13:00+17юз575148 0.0 10162112
16:00+19юз574569 0.0 10142359
19:00+15ююз497097 0.0 1012197
22:00+13ю51187100 1.3 1011337
27 мая, пт
пт2701:00+13юз91592100 3.5 10081213
04:00+11зюз9168678 3.7 10081055
07:00+12юз8149178 0.1 1007821
10:00+13юз8118499 0.5 1007902
13:00+12зюз6118317 2.6 1007688
16:00+16зсз8126212 3.6 10081770
19:00+15зсз711690 0.1 10091167
22:00+10з49864 0.1 1012199
28 мая, сб
сб2801:00+8юз35915 0.0 101290
04:00+8ююз499424 0.0 1012169
07:00+11ююз512844 0.0 1011331
10:00+17ююз8136769 0.0 1010790
13:00+19юз8117032 0.0 10111280
16:00+17з61183100 0.7 1012839
19:00+14зюз4884100 0.1 1013496
22:00+12ююз359274 0.1 1015138
29 мая, вс
вс2901:00+11ююз339343 0.0 101549
04:00+12ююз2388100 0.1 101564
07:00+12зсз2393100 0.6 101665
10:00+12ссз3595100 0.8 1017226
13:00+12ссв3491100 0.7 1018237
16:00+15ссв237395 0.7 1018503
19:00+13ссз4485100 0.0 1019247
22:00+11с2384100 0.0 102085